[[{"header":{"parameterUnit":"m.s-1","parameterCategory":2,"la1":30.2992,"la2":30.254,"lo1":-89.0895,"lo2":-89.0443,"dy":0.0025,"dx":0.0025,"nx":19,"ny":19,"refTime":"2026-05-14T21:00:00:Z","depth":"0","parameterNumber":2,"parameterNumberName":"U-component_of_CURRENTS"},"data":[0,0,0,0.1323,0.1323,0.1321,0.1321,0.141,0.141,0,0,0,0,0,0,0,0,0,0,0,0.1325,0.1325,0.1323,0.1322,0.1321,0.1321,0.1409,0.141,0,0,0,0,0,0,0,0,0,0,0,0.1325,0.1325,0.1325,0.1322,0.1321,0.1321,0.1409,0.1391,0,0,0,0,0,0,0,0,0,0,0.1382,0.1367,0.1325,0.1325,0.1322,0.1321,0.1322,0.1389,0.1392,0.1432,0,0.1422,0,0.1414,0.1417,0.1418,0,0,0,0.1334,0.1364,0.1361,0.1324,0.1322,0.1321,0.1325,0.139,0.1393,0.1436,0.1423,0.1425,0.1416,0.1418,0.1418,0.1452,0.1451,0,0,0.1334,0.1333,0.1358,0.1363,0.1311,0.1325,0.1325,0.1391,0.1394,0.1423,0.1427,0.1417,0.1419,0.1419,0.1452,0.1452,0,0,0,0.1327,0.1333,0.1327,0.136,0.135,0.1325,0.1325,0.1391,0.1388,0.1428,0.1418,0.1419,0.142,0.1453,0.1452,0.1359,0,0,0,0.1327,0.1327,0.1327,0.1327,0.1348,0.1358,0.1323,0.1383,0.139,0.1418,0.1419,0.1421,0.1453,0.1452,0.1362,0.1304,0,0,0,0.1327,0.1327,0.1323,0.1327,0.132,0.1356,0.1357,0.1384,0.1385,0.1418,0.1422,0.1453,0.1452,0.1365,0.131,0.125,0,0,0,0.1333,0.1316,0.1323,0.1305,0.132,0.1304,0.1356,0.1361,0.1383,0.142,0.1453,0.1452,0.1366,0.1314,0.1254,0.1133,0.1105,0,0,0.1315,0.1314,0.1304,0.1309,0.1278,0.1305,0.1276,0.133,0.1384,0.1441,0.1441,0.1361,0.1311,0.1251,0.1079,0.1051,0,0,0,0.13,0.1285,0.1279,0.1263,0.1261,0.1235,0.1278,0.1298,0.1333,0.139,0.1368,0.1339,0.1304,0.124,0.1219,0.1023,0.1448,0.1448,0.1448,0.1251,0.1252,0.1222,0.1211,0.12,0.1193,0.118,0.1215,0.1286,0.1282,0.1269,0.1165,0.1096,0.1079,0.0878,0.1285,0.1285,0.1284,0.1284,0.1194,0.1164,0.1165,0.1136,0.1116,0.1093,0.1095,0.1119,0.1111,0.1189,0.1161,0.1152,0.1049,0.0844,0.1278,0.1279,0.128,0.1281,0.1281,0.114,0.1124,0.1117,0.1074,0.103,0.1019,0.0955,0.0973,0.1017,0.0984,0.0932,0.0933,0.0747,0.0976,0.0975,0.0975,0.0974,0.0974,0.0974,0.1078,0.1071,0.1041,0.1006,0.098,0.0924,0.087,0.0832,0.078,0.0804,0.0804,0.0667,0.1071,0.1077,0.0966,0.0967,0.0968,0.0969,0.0969,0.0997,0.1015,0.0965,0.0943,0.0882,0.0791,0.0753,0.0605,0.0571,0.0519,0.0351,0.0714,0.0729,0.0746,0.0745,0.0554,0.0554,0.0554,0.0554,0.0952,0.0954,0.0897,0.0858,0.0797,0.073,0.0524,0.0378,0.019,0.0061,0.0069,0.0082,0.0108,0.0089,0.0121,0.0109,-0.0239,-0.024,-0.0241,0.0903,0.0897,0.0844,0.0818,0.0763,0.0643,0.0397,0.0077,-0.0215,-0.0289,-0.0191,-0.0158,-0.0145,-0.0088,-0.0109,-0.0048,-0.0062,0,0]},{"header":{"parameterUnit":"m.s-1","parameterCategory":2,"la1":30.2992,"la2":30.254,"lo1":-89.0895,"lo2":-89.0443,"dy":0.0025,"dx":0.0025,"nx":19,"ny":19,"refTime":"2026-05-14T21:00:00:Z","depth":"0","parameterNumber":3,"parameterNumberName":"V-component_of_CURRENTS"},"data":[0,0,0,-0.0693,-0.0691,-0.0583,-0.0582,-0.0374,-0.0372,0,0,0,0,0,0,0,0,0,0,0,-0.073,-0.0729,-0.0693,-0.0691,-0.0583,-0.0582,-0.0374,-0.0372,0,0,0,0,0,0,0,0,0,0,0,-0.073,-0.0729,-0.0729,-0.0691,-0.0583,-0.0582,-0.0375,-0.0469,0,0,0,0,0,0,0,0,0,0,-0.058,-0.0643,-0.0729,-0.0729,-0.069,-0.0583,-0.0582,-0.0474,-0.0463,-0.041,0,-0.0407,0,-0.0392,-0.0359,-0.0358,0,0,0,-0.067,-0.0652,-0.0616,-0.0729,-0.069,-0.0583,-0.0626,-0.0468,-0.0456,-0.0395,-0.0404,-0.0397,-0.0388,-0.0357,-0.0356,-0.0174,-0.0174,0,0,-0.0676,-0.0709,-0.0625,-0.0609,-0.0677,-0.0629,-0.0623,-0.0461,-0.0457,-0.0403,-0.0392,-0.0385,-0.0356,-0.0354,-0.0175,-0.0174,0,0,0,-0.0707,-0.0713,-0.0682,-0.0617,-0.0607,-0.0627,-0.0619,-0.0464,-0.0453,-0.039,-0.0383,-0.0355,-0.0352,-0.0175,-0.0175,-0.0185,0,0,0,-0.071,-0.0733,-0.0685,-0.0703,-0.0611,-0.0547,-0.0626,-0.0464,-0.0445,-0.0384,-0.0355,-0.035,-0.0176,-0.0175,-0.0186,-0.019,0,0,0,-0.0732,-0.0735,-0.0726,-0.0705,-0.0667,-0.055,-0.0528,-0.0459,-0.0441,-0.0358,-0.035,-0.0176,-0.0175,-0.0187,-0.0191,-0.0124,0,0,0,-0.0762,-0.0756,-0.0727,-0.0715,-0.0668,-0.0588,-0.0529,-0.046,-0.0395,-0.0354,-0.0176,-0.0175,-0.0187,-0.0192,-0.0125,-0.0153,-0.0148,0,0,-0.0768,-0.0758,-0.0748,-0.072,-0.0665,-0.06,-0.051,-0.0407,-0.0354,-0.0221,-0.0217,-0.0186,-0.0191,-0.0124,-0.0089,-0.0086,0,0,0,-0.0759,-0.0752,-0.073,-0.0695,-0.063,-0.0539,-0.0446,-0.038,-0.0262,-0.0314,-0.016,-0.0162,-0.012,-0.0139,-0.0136,-0.0076,-0.017,-0.017,-0.017,-0.079,-0.0756,-0.0727,-0.0667,-0.0611,-0.0484,-0.0393,-0.028,-0.0243,-0.0193,-0.0152,-0.0083,-0.0105,-0.0103,-0.0041,-0.0129,-0.0129,-0.013,-0.013,-0.0786,-0.0757,-0.0716,-0.0676,-0.058,-0.0494,-0.0319,-0.0263,-0.0109,-0.012,-0.0077,-0.0127,-0.0101,-0.0035,-0.013,-0.013,-0.013,-0.013,-0.013,-0.0793,-0.0768,-0.0757,-0.0689,-0.0602,-0.0485,-0.0346,-0.0228,-0.0121,-0.0068,-0.0051,-0.0052,-0.0007,-0.0041,-0.004,-0.004,-0.004,-0.004,-0.0039,-0.0788,-0.0771,-0.0737,-0.0685,-0.0635,-0.0531,-0.035,-0.0245,-0.0111,-0.0051,-0.005,0.0028,-0.0055,-0.0074,-0.0035,-0.0036,-0.0036,-0.0037,-0.0037,-0.0745,-0.0758,-0.0702,-0.0667,-0.0558,-0.0473,-0.035,-0.0181,-0.0074,-0.0017,0.0065,-0.0017,-0.0004,-0.0007,-0.0023,0.0027,0.0027,0.0027,0.0027,-0.0715,-0.0719,-0.0632,-0.0565,-0.0484,-0.0418,-0.0283,-0.0171,0.0002,0.008,0.0127,0.0091,0.0085,0.0102,0.0096,0.0083,0.0158,0.0159,0.0159,-0.0662,-0.065,-0.0573,-0.0524,-0.0441,-0.0358,-0.0263,-0.0212,0.0005,0.0173,0.0224,0.0218,0.0171,0.0158,0.0185,0.0172,0.015,0,0]}],[{"header":{"parameterUnit":"m.s-1","parameterCategory":2,"la1":30.2992,"la2":30.254,"lo1":-89.0895,"lo2":-89.0443,"dy":0.0025,"dx":0.0025,"nx":19,"ny":19,"refTime":"2026-05-14T21:00:00:Z","depth":"2","parameterNumber":2,"parameterNumberName":"U-component_of_CURRENTS"},"data":[0,0,0,0.0352,0.0351,0.0395,0.0395,0.0609,0.0611,0,0,0,0,0,0,0,0,0,0,0,0.0361,0.0361,0.0352,0.0351,0.0394,0.0395,0.0608,0.0611,0,0,0,0,0,0,0,0,0,0,0,0.0361,0.0361,0.0362,0.0351,0.0394,0.0395,0.0608,0.0543,0,0,0,0,0,0,0,0,0,0,0.0485,0.0456,0.0361,0.0362,0.0351,0.0394,0.0395,0.0539,0.0547,0.0625,0,0.0626,0,0.0604,0.0626,0.0627,0,0,0,0.0382,0.0448,0.0455,0.0362,0.0351,0.0394,0.0384,0.0543,0.0553,0.0637,0.0629,0.0635,0.0607,0.0627,0.0628,0.0778,0.0777,0,0,0.0379,0.0381,0.0447,0.046,0.036,0.0382,0.0385,0.0547,0.0564,0.0629,0.0639,0.0611,0.0629,0.0631,0.0778,0.0778,0,0,0,0.0352,0.0379,0.038,0.0454,0.0438,0.0383,0.0386,0.0557,0.0555,0.064,0.0613,0.063,0.0633,0.0778,0.0778,0.0715,0,0,0,0.0352,0.0361,0.0379,0.0382,0.0433,0.0473,0.0392,0.0545,0.056,0.0612,0.063,0.0635,0.0778,0.0778,0.0717,0.0721,0,0,0,0.036,0.0361,0.0363,0.0381,0.0382,0.0469,0.0477,0.0547,0.0544,0.0627,0.0636,0.0778,0.0778,0.0718,0.0723,0.0662,0,0,0,0.0364,0.0358,0.0364,0.0352,0.0381,0.039,0.0475,0.0517,0.058,0.0631,0.0778,0.0778,0.0719,0.0724,0.0664,0.0525,0.0504,0,0,0.0352,0.0357,0.0347,0.0351,0.0336,0.0386,0.0403,0.0527,0.0609,0.0742,0.0744,0.0716,0.0723,0.0663,0.0517,0.0496,0,0,0,0.0339,0.0333,0.033,0.0324,0.0336,0.0382,0.0454,0.0506,0.0625,0.0638,0.0731,0.0739,0.0701,0.0622,0.0606,0.0777,0.0777,0.0777,0.0777,0.0335,0.0324,0.0314,0.031,0.0325,0.0387,0.0434,0.0531,0.0594,0.0633,0.0696,0.0628,0.0543,0.053,0.0692,0.0691,0.0691,0.0691,0.0691,0.031,0.0301,0.0307,0.0298,0.0342,0.0377,0.0463,0.0511,0.0581,0.0652,0.0617,0.0574,0.0508,0.0686,0.0687,0.0688,0.0688,0.0689,0.0689,0.0307,0.0302,0.0305,0.0305,0.0346,0.0395,0.0428,0.0501,0.0555,0.055,0.0453,0.0453,0.0581,0.052,0.052,0.052,0.052,0.052,0.0519,0.0307,0.0304,0.0311,0.0313,0.0332,0.0357,0.0425,0.0425,0.0397,0.0399,0.0397,0.0571,0.0577,0.0572,0.0515,0.0516,0.0517,0.0517,0.0517,0.0292,0.0306,0.032,0.0335,0.0331,0.0286,0.0332,0.0244,0.0237,0.0173,0.0288,0.0295,0.0302,0.0315,0.0305,0.0182,0.0182,0.0182,0.0182,0.0298,0.0296,0.0338,0.0349,0.0309,0.0264,0.0129,0.0005,-0.0018,-0.0051,-0.0041,-0.0043,-0.0026,-0.0034,-0.0013,-0.0028,-0.0238,-0.0239,-0.0239,0.0299,0.0329,0.0362,0.0365,0.0305,0.0201,0.0005,-0.0248,-0.0355,-0.0252,-0.0072,0.0146,0.0172,0.0188,0.0204,0.0225,0.0213,0,0]},{"header":{"parameterUnit":"m.s-1","parameterCategory":2,"la1":30.2992,"la2":30.254,"lo1":-89.0895,"lo2":-89.0443,"dy":0.0025,"dx":0.0025,"nx":19,"ny":19,"refTime":"2026-05-14T21:00:00:Z","depth":"2","parameterNumber":3,"parameterNumberName":"V-component_of_CURRENTS"},"data":[0,0,0,0.0375,0.0377,0.0493,0.0494,0.0587,0.0587,0,0,0,0,0,0,0,0,0,0,0,0.0329,0.0329,0.0375,0.0378,0.0493,0.0494,0.0587,0.0587,0,0,0,0,0,0,0,0,0,0,0,0.0329,0.0329,0.033,0.0378,0.0493,0.0494,0.0586,0.0513,0,0,0,0,0,0,0,0,0,0,0.0408,0.0365,0.0329,0.033,0.0379,0.0493,0.0494,0.0511,0.0518,0.0518,0,0.0533,0,0.0563,0.0592,0.0592,0,0,0,0.038,0.0359,0.0398,0.033,0.038,0.0493,0.0442,0.0515,0.0523,0.0527,0.0535,0.0539,0.0565,0.0592,0.0593,0.0676,0.0676,0,0,0.0374,0.0343,0.0393,0.0403,0.0406,0.0438,0.0445,0.0521,0.0521,0.0536,0.0542,0.0566,0.0593,0.0593,0.0676,0.0676,0,0,0,0.0354,0.0338,0.0377,0.0399,0.0425,0.0441,0.045,0.0518,0.0533,0.0543,0.0568,0.0593,0.0594,0.0675,0.0676,0.0656,0,0,0,0.035,0.0327,0.0374,0.0356,0.0424,0.0479,0.0445,0.0528,0.0538,0.0567,0.0593,0.0595,0.0675,0.0676,0.0655,0.058,0,0,0,0.0324,0.0324,0.0338,0.0354,0.0405,0.0479,0.0499,0.0531,0.0552,0.0592,0.0595,0.0675,0.0675,0.0655,0.0582,0.0586,0,0,0,0.0288,0.0315,0.0337,0.0372,0.0404,0.0493,0.0499,0.0559,0.0595,0.0594,0.0675,0.0676,0.0655,0.0583,0.0587,0.0549,0.0542,0,0,0.0305,0.0315,0.0337,0.0361,0.0433,0.0478,0.0551,0.0592,0.0607,0.0645,0.0648,0.0655,0.0582,0.0587,0.0602,0.0593,0,0,0,0.0332,0.0347,0.0374,0.0416,0.0482,0.0523,0.0598,0.0618,0.0651,0.0633,0.068,0.0633,0.0637,0.0618,0.0611,0.068,0.068,0.068,0.068,0.0313,0.0351,0.0389,0.0448,0.05,0.057,0.0603,0.0642,0.0677,0.0686,0.0638,0.0645,0.0627,0.0621,0.0698,0.0698,0.0698,0.0698,0.0698,0.0332,0.0354,0.039,0.0435,0.0477,0.0531,0.0592,0.0611,0.0636,0.0649,0.0657,0.0622,0.0612,0.0697,0.0697,0.0697,0.0697,0.0697,0.0697,0.0322,0.0337,0.0351,0.0395,0.042,0.0473,0.0475,0.0508,0.0562,0.0568,0.056,0.056,0.0595,0.0582,0.0581,0.0581,0.0581,0.0581,0.058,0.03,0.0322,0.0318,0.0357,0.0368,0.0368,0.0378,0.0394,0.0427,0.0488,0.0489,0.0605,0.0609,0.0589,0.0576,0.0577,0.0577,0.0578,0.0578,0.0302,0.0292,0.0272,0.0273,0.0303,0.0301,0.0304,0.0305,0.033,0.0354,0.0477,0.0481,0.0472,0.0479,0.0457,0.041,0.041,0.041,0.041,0.0284,0.0286,0.0227,0.022,0.0246,0.0269,0.0218,0.0231,0.0308,0.0361,0.0364,0.0398,0.0406,0.0396,0.0404,0.0382,0.0315,0.0315,0.0315,0.0271,0.023,0.0182,0.0173,0.0228,0.0224,0.0168,0.0124,0.0213,0.0313,0.0368,0.0399,0.0458,0.0467,0.0461,0.0471,0.0439,0,0]}],[{"header":{"parameterUnit":"m.s-1","parameterCategory":2,"la1":30.2992,"la2":30.254,"lo1":-89.0895,"lo2":-89.0443,"dy":0.0025,"dx":0.0025,"nx":19,"ny":19,"refTime":"2026-05-14T21:00:00:Z","depth":"4","parameterNumber":2,"parameterNumberName":"U-component_of_CURRENTS"},"data":[0,0,0,-0.0576,-0.0578,-0.068,-0.0681,-0.1123,-0.1128,0,0,0,0,0,0,0,0,0,0,0,-0.0552,-0.0553,-0.0576,-0.0578,-0.068,-0.0681,-0.1123,-0.1128,0,0,0,0,0,0,0,0,0,0,0,-0.0552,-0.0552,-0.0553,-0.0578,-0.068,-0.0681,-0.1121,-0.0971,0,0,0,0,0,0,0,0,0,0,-0.0835,-0.0753,-0.0552,-0.0553,-0.0578,-0.068,-0.0681,-0.0961,-0.0981,-0.116,0,-0.1166,0,-0.1155,-0.1163,-0.1165,0,0,0,-0.0597,-0.0735,-0.0768,-0.0553,-0.0579,-0.068,-0.0639,-0.097,-0.0993,-0.1188,-0.1172,-0.1186,-0.1162,-0.1166,-0.1169,-0.1582,-0.1583,0,0,-0.0591,-0.0581,-0.0751,-0.0782,-0.0604,-0.0636,-0.0642,-0.098,-0.101,-0.1173,-0.1195,-0.117,-0.117,-0.1174,-0.1582,-0.1582,0,0,0,-0.0562,-0.0577,-0.0595,-0.0766,-0.0758,-0.0638,-0.0646,-0.0994,-0.1,-0.1199,-0.1175,-0.1173,-0.1179,-0.1581,-0.1582,-0.1342,0,0,0,-0.0559,-0.0558,-0.0592,-0.0588,-0.0749,-0.0833,-0.0653,-0.0977,-0.1013,-0.1173,-0.1173,-0.1184,-0.158,-0.1581,-0.1347,-0.1259,0,0,0,-0.0548,-0.0557,-0.0567,-0.0587,-0.0621,-0.0825,-0.0849,-0.0982,-0.1001,-0.1165,-0.1186,-0.158,-0.1581,-0.1351,-0.1268,-0.1268,0,0,0,-0.0538,-0.0552,-0.0567,-0.0591,-0.062,-0.0691,-0.0846,-0.0945,-0.107,-0.1176,-0.158,-0.1582,-0.1353,-0.1274,-0.1272,-0.12,0,0,0,-0.0546,-0.0553,-0.0567,-0.0582,-0.0625,-0.0678,-0.0765,-0.0994,-0.1166,-0.1495,-0.1502,-0.1345,-0.1269,-0.1269,-0.1291,0,0,0,0,-0.0563,-0.0573,-0.059,-0.0621,-0.0672,-0.0722,-0.0895,-0.1008,-0.1231,-0.1244,-0.1443,-0.1406,-0.1411,-0.1388,-0.1589,-0.1589,-0.1589,-0.1588,-0.1588,-0.0559,-0.0581,-0.0608,-0.0646,-0.0689,-0.0791,-0.0862,-0.1068,-0.1213,-0.128,-0.128,-0.1216,-0.1187,-0.1359,-0.1357,-0.1356,-0.1355,-0.1355,-0.1354,-0.0561,-0.0569,-0.0609,-0.0641,-0.0693,-0.0762,-0.0909,-0.0973,-0.1118,-0.1219,-0.1235,-0.1224,-0.1333,-0.1337,-0.134,-0.1343,-0.1345,-0.1346,-0.1347,-0.0539,-0.0545,-0.0574,-0.0619,-0.0654,-0.0714,-0.0745,-0.0807,-0.0948,-0.0917,-0.0971,-0.1111,-0.1054,-0.0913,-0.0912,-0.0912,-0.0912,-0.0911,-0.0911,-0.0496,-0.0524,-0.0546,-0.059,-0.0608,-0.0606,-0.0628,-0.0659,-0.071,-0.0744,-0.0848,-0.107,-0.1085,-0.1038,-0.0905,-0.0906,-0.0907,-0.0907,-0.0908,-0.0458,-0.0473,-0.05,-0.0526,-0.0564,-0.0555,-0.0562,-0.053,-0.0559,-0.057,-0.0713,-0.0724,-0.0828,-0.085,-0.0797,-0.0588,-0.0586,-0.0585,0,-0.0425,-0.0436,-0.0466,-0.0489,-0.0504,-0.0521,-0.0483,-0.0485,-0.0526,-0.0526,-0.0612,-0.0777,-0.0784,-0.0911,-0.0928,-0.0871,0,0,0,-0.0403,-0.0418,-0.0426,-0.046,-0.0474,-0.0457,-0.0467,-0.0441,-0.0531,-0.0458,-0.0549,-0.0558,-0.0757,-0.0885,-0.1076,-0.1093,-0.1029,0,0]},{"header":{"parameterUnit":"m.s-1","parameterCategory":2,"la1":30.2992,"la2":30.254,"lo1":-89.0895,"lo2":-89.0443,"dy":0.0025,"dx":0.0025,"nx":19,"ny":19,"refTime":"2026-05-14T21:00:00:Z","depth":"4","parameterNumber":3,"parameterNumberName":"V-component_of_CURRENTS"},"data":[0,0,0,0.0266,0.0266,0.0291,0.0291,0.0441,0.0443,0,0,0,0,0,0,0,0,0,0,0,0.0258,0.0258,0.0266,0.0267,0.0291,0.0291,0.0441,0.0443,0,0,0,0,0,0,0,0,0,0,0,0.0257,0.0258,0.0259,0.0267,0.0291,0.0291,0.044,0.039,0,0,0,0,0,0,0,0,0,0,0.035,0.0319,0.0258,0.0259,0.0267,0.0291,0.0291,0.0386,0.0393,0.0467,0,0.0477,0,0.0472,0.0457,0.0457,0,0,0,0.0257,0.0313,0.0333,0.0259,0.0267,0.0291,0.0277,0.0389,0.0397,0.0477,0.0479,0.0483,0.0475,0.0458,0.0459,0.0577,0.0577,0,0,0.0255,0.0252,0.0327,0.0338,0.0286,0.0277,0.0278,0.0393,0.0402,0.0479,0.0486,0.0477,0.0459,0.0461,0.0578,0.0577,0,0,0,0.0258,0.0251,0.0265,0.0333,0.0333,0.0278,0.0279,0.0396,0.0405,0.0488,0.0479,0.0461,0.0463,0.0578,0.0578,0.0498,0,0,0,0.0257,0.0254,0.0265,0.0261,0.033,0.0347,0.0281,0.0396,0.0409,0.0478,0.0461,0.0465,0.0578,0.0578,0.05,0.0494,0,0,0,0.0254,0.0253,0.0261,0.0261,0.0277,0.0344,0.0357,0.0398,0.0405,0.0458,0.0466,0.0578,0.0578,0.0503,0.0498,0.0446,0,0,0,0.0241,0.0245,0.0261,0.0261,0.0277,0.0256,0.0356,0.0383,0.0422,0.0462,0.0578,0.0578,0.0504,0.05,0.0449,0.0481,0,0,0,0.0234,0.0244,0.0241,0.0257,0.0249,0.0252,0.0222,0.0344,0.044,0.0549,0.055,0.0499,0.0498,0.0447,0.0449,0,0,0,0,0.023,0.0233,0.023,0.0237,0.0226,0.0222,0.0275,0.0304,0.0419,0.0463,0.0511,0.0514,0.0483,0.051,0.0575,0.0575,0.0575,0.0575,0.0575,0.0219,0.0222,0.0216,0.022,0.0216,0.0205,0.0196,0.0259,0.0353,0.0401,0.0455,0.0377,0.0403,0.0449,0.0449,0.0449,0.0448,0.0448,0.0448,0.0205,0.0203,0.0218,0.0229,0.023,0.0222,0.021,0.0246,0.0277,0.0378,0.035,0.0434,0.044,0.0442,0.0443,0.0444,0.0444,0.0445,0.0445,0.0195,0.0195,0.0217,0.0237,0.0262,0.0269,0.0251,0.0256,0.0269,0.0236,0.03,0.033,0.0328,0.0247,0.0247,0.0247,0.0246,0.0246,0.0246,0.0181,0.0188,0.0211,0.0247,0.0278,0.0314,0.0303,0.0272,0.0252,0.0239,0.0254,0.031,0.0317,0.0318,0.0242,0.0243,0.0243,0.0244,0.0244,0.0163,0.0175,0.0188,0.0217,0.0265,0.0274,0.0292,0.0253,0.0193,0.014,0.0212,0.0214,0.025,0.0258,0.0259,0.0163,0.0163,0.0163,0,0.0152,0.0157,0.0172,0.019,0.0204,0.0241,0.0208,0.0183,0.0145,0.0164,0.0129,0.0209,0.0212,0.0255,0.0262,0.0264,0,0,0,0.014,0.0147,0.0157,0.0178,0.0189,0.0185,0.0201,0.0195,0.0184,0.0141,0.0166,0.0165,0.0194,0.0229,0.0292,0.03,0.0305,0,0]}]]